Weather History for Wrangell, AK

Change the Weather History Date:

Tuesday, November 8, 2011

  Actual Average Record
Temperature  
Mean Temperature 40 °F -  
Max Temperature 42 °F 41 °F 52 °F (1961)
Min Temperature 37 °F 31 °F 13 °F (1973)
Degree Days  
Heating Degree Days 26    
Moisture  
Dew Point 34 °F    
Average Humidity 81    
Maximum Humidity 87    
Minimum Humidity 66    
Precipitation  
Precipitation 0.00 in - - ()
Sea Level Pressure  
Sea Level Pressure 30.06 in    
Wind  
Wind Speed 9 mph (East)    
Max Wind Speed 13 mph    
Max Gust Speed 17 mph    
Visibility 10 miles    
Events      
Averages and records for this station are not official NWS values.
T = Trace of Precipitation, MM = Missing Value Source: NWS Daily Summary

Daily Weather History Graph

Daily Weather History Graph

Search for Another Location

Airport:

Trip Planner

Search our weather history database for the weather conditions in past years. The results will help you decide how hot, cold, wet, or windy it might be!

Date:

Astronomy

Nov. 08, 2011 Rise Set
Actual Time 7:13 AM AKST 3:52 PM AKST
Civil Twilight 6:31 AM AKST 4:33 PM AKST
Nautical Twilight 5:46 AM AKST 5:19 PM AKST
Astronomical Twilight 5:02 AM AKST 6:03 PM AKST
Moon 2:43 PM AKST (11/8) 5:07 AM AKST (11/8)
Length of Visible Light 10h 02m
Length of Day
8h 39m
Waxing Gibbous, 96% of the Moon is Illuminated
Nov 8
Waxing Gibbous
Nov 10
Full
Nov 18
Last Quarter
Nov 24
New
Dec 2
First Quarter

Hourly Weather History & Observations

Time (AKST) Temp. Windchill Dew Point Humidity Pressure Visibility Wind Dir Wind Speed Gust Speed Precip Events Conditions
12:16 AM 39.2 °F 31.6 °F 33.8 °F 81% 30.02 in 10.0 mi East 12.7 mph 17.3 mph N/A   Overcast
12:36 AM 39.2 °F 33.6 °F 33.8 °F 81% 30.02 in 9.0 mi East 8.1 mph - N/A   Overcast
12:56 AM 37.4 °F - 33.8 °F 87% 30.04 in 10.0 mi Calm Calm - N/A   Overcast
1:16 AM 39.2 °F 34.2 °F 33.8 °F 81% 30.03 in 10.0 mi SE 6.9 mph - N/A   Overcast
1:36 AM 39.2 °F 37.0 °F 33.8 °F 81% 30.04 in 10.0 mi SE 3.5 mph - N/A   Mostly Cloudy
1:56 AM 39.2 °F 32.5 °F 33.8 °F 81% 30.04 in 10.0 mi East 10.4 mph - N/A   Mostly Cloudy
2:16 AM 37.4 °F 31.4 °F 33.8 °F 87% 30.04 in 10.0 mi SE 8.1 mph - N/A   Overcast
2:36 AM 37.4 °F 30.3 °F 33.8 °F 87% 30.04 in 10.0 mi SE 10.4 mph - N/A   Overcast
2:56 AM 37.4 °F 29.8 °F 33.8 °F 87% 30.04 in 10.0 mi East 11.5 mph - N/A   Overcast
3:16 AM 37.4 °F 30.8 °F 33.8 °F 87% 30.05 in 10.0 mi ESE 9.2 mph - N/A   Overcast
3:36 AM 37.4 °F 33.8 °F 33.8 °F 87% 30.05 in 10.0 mi SE 4.6 mph - N/A   Overcast
3:56 AM 37.4 °F 32.1 °F 33.8 °F 87% 30.05 in 10.0 mi SE 6.9 mph - N/A   Overcast
4:16 AM 37.4 °F 32.8 °F 33.8 °F 87% 30.05 in 10.0 mi SE 5.8 mph - N/A   Mostly Cloudy
4:36 AM 37.4 °F 31.4 °F 33.8 °F 87% 30.05 in 10.0 mi SE 8.1 mph - N/A   Mostly Cloudy
4:56 AM 37.4 °F 30.3 °F 33.8 °F 87% 30.05 in 10.0 mi ESE 10.4 mph - N/A   Overcast
5:16 AM 37.4 °F 31.4 °F 33.8 °F 87% 30.05 in 10.0 mi SSE 8.1 mph - N/A   Overcast
5:36 AM 37.4 °F 30.8 °F 33.8 °F 87% 30.06 in 10.0 mi ESE 9.2 mph - N/A   Overcast
5:56 AM 37.4 °F 31.4 °F 33.8 °F 87% 30.06 in 10.0 mi East 8.1 mph - N/A   Mostly Cloudy
6:16 AM 37.4 °F 32.8 °F 33.8 °F 87% 30.07 in 10.0 mi SSE 5.8 mph - N/A   Mostly Cloudy
6:36 AM 37.4 °F 29.8 °F 33.8 °F 87% 30.06 in 10.0 mi East 11.5 mph - N/A   Mostly Cloudy
6:56 AM 37.4 °F 29.3 °F 33.8 °F 87% 30.06 in 10.0 mi East 12.7 mph - N/A   Mostly Cloudy
7:16 AM 37.4 °F 29.8 °F 33.8 °F 87% 30.07 in 10.0 mi East 11.5 mph - N/A   Mostly Cloudy
7:36 AM 37.4 °F 29.8 °F 33.8 °F 87% 30.06 in 10.0 mi East 11.5 mph - N/A   Mostly Cloudy
7:56 AM 39.2 °F 32.0 °F 35.6 °F 87% 30.07 in 10.0 mi East 11.5 mph - N/A   Mostly Cloudy
8:16 AM 39.2 °F 33.0 °F 33.8 °F 81% 30.07 in 10.0 mi East 9.2 mph - N/A   Mostly Cloudy
8:36 AM 39.2 °F 31.6 °F 33.8 °F 81% 30.06 in 10.0 mi East 12.7 mph - N/A   Mostly Cloudy
8:56 AM 39.2 °F 31.6 °F 33.8 °F 81% 30.07 in 10.0 mi East 12.7 mph - N/A   Mostly Cloudy
9:16 AM 39.2 °F 32.0 °F 35.6 °F 87% 30.07 in 10.0 mi East 11.5 mph - N/A   Mostly Cloudy
9:36 AM 39.2 °F 31.6 °F 33.8 °F 81% 30.07 in 10.0 mi East 12.7 mph - N/A   Mostly Cloudy
9:56 AM 39.2 °F 32.0 °F 33.8 °F 81% 30.07 in 10.0 mi East 11.5 mph - N/A   Mostly Cloudy
10:16 AM 39.2 °F 32.0 °F 33.8 °F 81% 30.08 in 10.0 mi East 11.5 mph - N/A   Mostly Cloudy
10:36 AM 39.2 °F 32.5 °F 35.6 °F 87% 30.08 in 10.0 mi East 10.4 mph - N/A   Mostly Cloudy
10:56 AM 42.8 °F 37.5 °F 33.8 °F 70% 30.09 in 10.0 mi SSE 9.2 mph - N/A   Overcast
11:16 AM 42.8 °F 37.0 °F 32.0 °F 66% 30.09 in 10.0 mi SE 10.4 mph - N/A   Overcast
11:36 AM 42.8 °F 37.5 °F 32.0 °F 66% 30.09 in 10.0 mi ESE 9.2 mph - N/A   Overcast
11:56 AM 41.0 °F 34.3 °F 33.8 °F 76% 30.09 in 10.0 mi East 11.5 mph - N/A   Overcast
12:16 PM 41.0 °F 34.3 °F 33.8 °F 76% 30.08 in 10.0 mi East 11.5 mph - N/A   Overcast
12:36 PM 41.0 °F 34.7 °F 35.6 °F 81% 30.08 in 10.0 mi East 10.4 mph - N/A   Overcast
12:56 PM 41.0 °F 34.7 °F 33.8 °F 76% 30.08 in 10.0 mi East 10.4 mph - N/A   Overcast
1:16 PM 41.0 °F 34.3 °F 33.8 °F 76% 30.08 in 10.0 mi East 11.5 mph - N/A   Overcast
1:36 PM 41.0 °F 34.7 °F 33.8 °F 76% 30.08 in 10.0 mi East 10.4 mph - N/A   Overcast
1:56 PM 42.8 °F 37.0 °F 33.8 °F 70% 30.08 in 10.0 mi East 10.4 mph - N/A   Overcast
2:16 PM 42.8 °F 37.5 °F 33.8 °F 70% 30.08 in 10.0 mi East 9.2 mph - N/A   Overcast
2:36 PM 41.0 °F 34.7 °F 33.8 °F 76% 30.08 in 10.0 mi East 10.4 mph - N/A   Overcast
2:56 PM 41.0 °F 34.7 °F 33.8 °F 76% 30.08 in 10.0 mi East 10.4 mph - N/A   Overcast
3:16 PM 42.8 °F 37.0 °F 33.8 °F 70% 30.08 in 10.0 mi East 10.4 mph - N/A   Overcast
3:36 PM 41.0 °F 34.3 °F 33.8 °F 76% 30.07 in 10.0 mi ENE 11.5 mph - N/A   Overcast
3:56 PM 41.0 °F 33.9 °F 35.6 °F 81% 30.07 in 10.0 mi East 12.7 mph - N/A   Overcast
4:16 PM 39.2 °F 32.5 °F 35.6 °F 87% 30.07 in 10.0 mi East 10.4 mph - N/A   Overcast
4:36 PM 41.0 °F 34.7 °F 35.6 °F 81% 30.07 in 10.0 mi East 10.4 mph - N/A   Overcast
4:56 PM 41.0 °F 35.2 °F 33.8 °F 76% 30.06 in 10.0 mi ENE 9.2 mph - N/A   Overcast
5:16 PM 41.0 °F 35.2 °F 33.8 °F 76% 30.06 in 10.0 mi ENE 9.2 mph - N/A   Overcast
5:36 PM 41.0 °F 35.2 °F 33.8 °F 76% 30.06 in 10.0 mi East 9.2 mph - N/A   Overcast
5:56 PM 41.0 °F 35.2 °F 33.8 °F 76% 30.06 in 10.0 mi East 9.2 mph - N/A   Overcast
6:16 PM 41.0 °F 34.7 °F 35.6 °F 81% 30.06 in 10.0 mi East 10.4 mph - N/A   Overcast
6:36 PM 41.0 °F 38.0 °F 33.8 °F 76% 30.06 in 10.0 mi ESE 4.6 mph - N/A   Overcast
6:56 PM 39.2 °F 32.0 °F 35.6 °F 87% 30.06 in 10.0 mi ENE 11.5 mph - N/A   Overcast
7:16 PM 41.0 °F 33.9 °F 33.8 °F 76% 30.06 in 10.0 mi East 12.7 mph - N/A   Overcast
7:36 PM 42.8 °F 36.6 °F 33.8 °F 70% 30.06 in 10.0 mi East 11.5 mph - N/A   Overcast
7:56 PM 41.0 °F 34.7 °F 33.8 °F 76% 30.06 in 10.0 mi East 10.4 mph - N/A   Overcast
8:16 PM 41.0 °F 33.9 °F 33.8 °F 76% 30.05 in 10.0 mi ENE 12.7 mph - N/A   Overcast
8:36 PM 41.0 °F 35.2 °F 33.8 °F 76% 30.06 in 10.0 mi East 9.2 mph - N/A   Overcast
8:56 PM 39.2 °F 33.0 °F 33.8 °F 81% 30.05 in 10.0 mi East 9.2 mph - N/A   Overcast
9:16 PM 39.2 °F 33.0 °F 33.8 °F 81% 30.05 in 10.0 mi ESE 9.2 mph - N/A   Overcast
9:36 PM 39.2 °F 33.0 °F 33.8 °F 81% 30.04 in 10.0 mi East 9.2 mph - N/A   Overcast
9:56 PM 39.2 °F 33.6 °F 33.8 °F 81% 30.03 in 10.0 mi ESE 8.1 mph - N/A   Mostly Cloudy
10:16 PM 39.2 °F 35.0 °F 33.8 °F 81% 30.03 in 10.0 mi SSE 5.8 mph - N/A   Mostly Cloudy
10:36 PM 39.2 °F 33.0 °F 33.8 °F 81% 30.02 in 10.0 mi East 9.2 mph - N/A   Mostly Cloudy
10:56 PM 39.2 °F 33.0 °F 33.8 °F 81% 30.01 in 10.0 mi SE 9.2 mph - N/A   Mostly Cloudy
11:16 PM 39.2 °F 33.0 °F 35.6 °F 87% 29.99 in 10.0 mi ESE 9.2 mph - N/A   Clear
11:36 PM 39.2 °F 33.6 °F 33.8 °F 81% 29.98 in 10.0 mi SE 8.1 mph - N/A   Mostly Cloudy
11:56 PM 39.2 °F 33.0 °F 32.0 °F 75% 29.97 in 10.0 mi SE 9.2 mph - N/A   Overcast